SCP
-0 -0 -0 -0 -0 -0 -0 -0 -0 -0 -0 -0 -0 -0 -0 -0 -0 -0 -0 -0 -0 -0 -0 -0 0 0 -0 -0 -0 -0 -0 -0 -0 -0 -0 -0 -0 -0 -0 -0 -0 -0 -0
-0 -0 -0 -0 -0 -0 -0 -0 -0 -0 -0 -0 -0 -0 -0 -0 -0 -0 -0 -0 -0 -0 -0 -0 -0 -0 -0 -0 -0 -0 -0 -0 -0 -0 -0 -0 -0 -0 -0 -0 -0 0 -0
-0 0 -0 -0 0 -0 -0 -0 -0 -0 -0 -0 -0 -0 -0 -0 -0 -0 -0 -0 -0 -0 -0 -0 -0 -0 -0 -0 -0 -0 0 -0 -0 -0 -0 -0 0 0 -0 -0 -0 0 0
-0 0 -0 -0 0 0 0 -0 -0 -0 -0 -0 -0 -0 -0 -0 -0 -0 0 -0 -0 -0 -0 -0 -0 -0 -0 -0 -0 -0 0 -0 0 -0 0 -0 0 0 0 0 0 0 0
-0 -0 0 0 0 -0 -0 -0 -0 -0 -0 -0 -0 -0 -0 -0 -0 0 0 0 0 0 0 0 0 -0 -0 -0 -0 -0 -0 -0 -0 0 -0 -0 0 0 0 0 0 0 0
-0 -0 -0 -0 -0 -0 -0 0 -0 -0 -0 -0 -0 0 -0 -0 0 0 0 0 0 0 0 0 0 0 -0 -0 0 -0 -0 -0 -0 0 -0 -0 0 0 0 0 0 0 0
-0 -0 0 0 0 0 0 0 0 0 0 0 0 0 0 0 0 0 0 0 0 0 0 0 0 0 -0 0 0 -0 -0 -0 -0 -0 -0 0 0 0 0 0 0 0 0
-0 0 0 0 0 0 0 0 0 0 0 0 0 0 0 0 0 0 0 0 0 0 0 0 0 0 0 0 -0 -0 -0 -0 0 0 -0 0 0 0 0 0 0 0 0
0 0 0 0 0 0 0 0 0 0 0 0 0 0 0 0 0 0 0 0 0 0 0 0 0 0 0 0 -0 -0 -0 -0 0 0 0 0 0 0 0 0 0 0 0
0 0 0 0 0 0 0 0 0 0 0 1 1 1 1 0 0 0 0 0 0 0 0 0 0 0 0 0 -0 -0 -0 -0 0 0 0 0 0 0 0 0 0 0 0
1 1 0 0 0 0 0 0 1 0 1 1 1 1 1 0 0 0 0 0 0 0 0 0 0 0 0 0 -0 -0 -0 -0 0 0 0 0 0 0 0 0 0 0 0
0 1 1 0 0 -0 0 0 0 0 0 0 0 0 0 0 0 0 0 0 0 0 0 0 0 0 0 0 0 -0 -0 0 0 0 0 0 0 0 0 0 0 0 0
0 1 1 1 0 0 1 1 0 0 0 0 0 0 0 0 0 0 0 0 0 0 0 0 0 0 0 0 0 0 -0 0 0 0 0 0 0 0 0 0 0 0 0
0 1 1 1 2 0 3 1 -0 0 0 0 0 1 0 0 0 0 0 0 0 0 0 0 0 0 -0 0 0 0 0 0 0 0 0 0 0 0 0 0 0 0 0
0 0 1 2 2 2 2 4 2 3 3 0 1 1 0 0 1 1 1 0 0 0 0 0 0 0 0 0 1 1 1 0 0 0 0 0 0 0 0 0 0 0 0
0 0 0 1 3 3 5 5 5 1 1 3 3 1 0 1 1 2 1 1 0 0 0 0 0 0 0 0 1 1 1 0 0 0 0 0 0 0 0 0 0 0 0
0 0 0 1 3 3 3 3 2 2 2 1 1 0 0 -0 2 2 2 1 1 1 1 1 1 1 0 0 -0 1 1 1 1 0 0 0 0 0 0 0 0 0 0
0 0 0 0 2 2 2 1 1 1 3 3 0 0 0 -0 2 2 1 2 2 1 1 1 1 1 0 0 0 0 2 2 1 0 0 0 0 0 0 0 0 0 0
0 1 0 0 2 1 2 1 2 1 2 2 3 0 0 0 1 1 1 1 3 2 3 1 1 1 1 1 0 0 2 1 0 1 -0 0 0 0 0 0 0 0 0
0 1 1 1 2 1 1 2 1 1 1 2 1 0 0 0 -0 1 1 2 3 2 2 2 1 1 1 1 0 0 1 0 0 0 0 0 0 0 0 0 0 0 0
1 2 2 2 2 2 2 1 0 0 0 0 1 0 0 -0 1 1 0 1 1 1 1 0 1 1 1 1 1 0 1 0 0 0 1 0 0 0 0 0 0 0 0
2 3 2 2 2 3 2 0 0 0 0 0 1 0 0 0 1 1 1 1 1 1 2 1 1 1 1 1 1 1 0 1 1 1 2 1 0 0 0 0 0 0 0
1 2 2 1 3 3 1 1 1 1 1 0 1 1 1 1 1 1 1 1 1 1 1 2 2 1 1 1 1 1 0 0 0 1 1 1 0 0 0 0 0 0 0
0 1 1 1 3 2 2 1 1 1 1 0 0 1 1 1 0 1 1 1 1 1 1 1 1 1 1 1 1 0 0 0 0 0 1 1 0 0 0 0 0 0 0
0 0 1 2 3 2 2 3 2 2 0 0 0 1 1 2 1 1 1 1 2 2 1 1 1 1 1 1 1 1 0 0 0 0 0 1 0 0 0 0 0 0 0
0 0 1 1 2 3 2 1 3 2 0 1 0 1 1 1 1 1 1 1 2 2 1 1 1 1 1 1 1 1 0 0 0 0 0 0 0 0 0 0 0 0 0
Wind_Speed_500mb
21 37 34 32 35 36 32 28 29 32 31 31 29 27 25 25 25 24 26 25 23 22 21 21 22 24 24 23 21 23 31 36 46 43 41 37 32 28 21 14 17 27 27
37 36 35 33 33 34 31 27 25 27 29 28 27 24 22 23 23 22 23 22 21 21 21 22 22 22 22 21 23 29 35 42 44 40 44 40 40 32 28 21 23 34 32
43 42 37 35 35 32 28 25 24 26 27 26 24 22 19 19 21 20 19 19 19 19 20 20 20 20 20 21 26 29 38 41 40 34 26 39 41 36 34 33 31 32 33
40 40 38 36 35 35 31 27 24 24 25 24 21 19 16 15 16 17 16 16 16 16 18 19 18 18 18 21 23 29 37 39 37 42 27 25 35 35 35 36 30 24 25
40 39 37 36 35 34 31 30 29 26 25 23 19 17 14 13 12 13 14 13 13 14 15 16 15 15 16 19 21 29 35 33 32 16 12 22 30 31 27 22 25 25 26
38 36 36 34 34 33 32 30 32 29 27 24 19 15 13 11 9 11 12 12 10 12 13 13 13 13 15 17 21 30 33 32 27 11 22 31 31 31 29 28 27 25 22
37 33 34 33 33 32 31 30 30 29 27 25 21 17 14 12 9 9 10 11 10 9 11 11 11 13 15 18 21 27 31 30 27 5 21 33 36 31 30 29 28 25 24
28 28 31 32 31 31 31 31 30 28 26 24 22 19 16 14 12 9 8 9 10 8 9 9 9 12 15 17 19 22 20 25 21 11 21 29 34 31 30 29 28 27 26
20 30 29 29 30 30 29 29 29 29 28 26 24 21 20 18 16 13 10 9 9 9 8 8 8 11 14 16 18 22 24 22 18 4 14 28 30 29 29 29 28 28 27
29 15 30 31 29 29 30 31 30 29 29 29 28 27 26 24 22 18 14 11 10 10 9 10 9 11 13 14 14 18 24 13 7 12 14 20 26 26 27 27 28 27 31
41 30 21 22 29 28 28 29 30 31 32 32 33 33 32 30 26 24 20 16 13 12 12 12 11 12 13 11 11 13 19 14 11 16 14 18 21 24 25 26 27 29 33
38 37 26 30 26 25 18 13 25 30 31 34 36 37 36 30 20 17 22 18 16 16 17 16 15 15 15 12 11 12 19 13 12 22 15 15 18 21 21 24 26 28 33
40 21 60 65 36 23 44 30 15 26 33 38 41 42 40 30 33 26 25 28 25 23 22 20 20 19 14 10 8 7 9 9 13 22 19 11 13 16 17 19 22 24 31
7 16 24 37 33 24 20 26 12 23 34 29 33 39 33 44 38 31 26 20 12 24 22 16 13 13 20 22 26 11 10 20 23 24 25 14 8 11 13 15 18 22 27
10 13 13 17 15 30 45 20 20 37 40 35 23 32 41 43 39 42 29 27 22 7 6 26 13 24 8 26 32 26 19 22 32 31 31 19 6 4 7 10 14 20 25
21 16 8 11 23 22 22 36 16 29 23 34 34 50 41 33 34 34 36 31 22 20 18 16 25 24 26 26 32 37 35 25 36 33 37 18 11 5 1 3 9 14 21
27 33 26 15 24 22 25 29 36 21 19 39 35 57 53 34 35 41 29 29 35 22 30 20 23 26 29 27 34 36 33 26 40 35 34 25 17 13 7 2 4 10 15
34 27 35 29 24 28 25 25 27 29 25 30 37 23 26 33 42 42 44 40 33 28 28 37 30 29 29 26 27 28 37 38 18 29 23 37 22 17 13 8 8 11 16
31 32 41 39 23 27 18 17 23 27 29 31 26 24 26 17 25 33 36 31 40 39 32 26 34 32 30 34 27 30 36 36 34 17 27 45 33 31 20 17 15 13 17
39 42 35 44 35 26 22 26 19 19 18 26 32 42 44 35 27 26 27 35 38 41 38 29 36 38 38 39 35 39 40 52 47 29 44 44 40 39 23 31 20 20 19
40 51 56 47 46 38 31 26 15 19 20 25 31 20 28 16 18 21 19 25 24 35 43 44 45 38 41 38 37 38 29 31 28 32 40 40 50 43 35 37 33 28 20
44 52 52 55 52 51 42 32 24 26 28 14 21 9 15 6 13 11 16 21 22 18 26 30 48 42 39 38 37 33 43 37 39 36 46 43 42 43 45 45 38 30 22
47 54 53 53 57 58 49 41 38 21 20 18 10 15 18 14 15 15 16 15 21 22 20 26 24 35 44 46 47 49 26 21 38 38 54 53 47 52 48 46 36 29 31
52 58 55 56 61 64 54 49 47 42 29 26 27 31 32 20 19 25 24 26 29 26 24 24 27 33 32 37 47 57 58 53 33 21 39 48 50 52 48 46 41 33 38
44 53 56 57 60 64 63 52 49 44 43 32 27 26 30 31 28 26 23 24 30 31 33 31 36 34 39 34 34 42 45 54 65 53 34 25 42 46 51 53 44 39 45
40 57 53 51 63 59 57 64 49 49 47 37 39 28 30 26 20 24 22 30 33 33 30 33 41 43 44 42 41 40 42 49 55 61 61 53 41 49 54 57 47 44 49
Wind_Direction_500mb
140 148 147 143 141 141 139 134 130 131 131 126 121 114 109 107 103 98 95 93 89 85 82 82 86 91 95 94 96 92 70 58 54 45 40 41 44 52 52 74 0 31 39
144 146 146 143 144 146 144 143 137 137 136 130 125 120 111 109 106 102 100 97 90 84 83 84 84 88 90 88 95 88 69 66 55 46 25 17 31 40 45 42 37 40 41
148 147 146 143 148 146 149 154 150 147 145 139 132 127 118 109 108 107 105 100 91 86 89 87 84 87 90 87 100 85 75 71 57 45 41 357 17 29 35 44 41 39 31
146 146 145 143 145 147 153 160 162 157 156 149 141 136 128 117 111 112 109 104 95 88 94 90 84 86 93 92 96 83 82 77 65 55 66 337 9 26 28 30 38 41 26
146 145 140 139 144 148 156 165 170 168 166 161 154 149 145 133 123 121 116 111 102 93 92 89 84 83 90 94 94 87 91 82 80 79 33 13 21 32 35 29 28 35 43
136 137 138 138 143 148 157 167 172 173 174 173 168 167 164 159 148 138 130 123 112 97 96 87 80 85 93 102 104 101 98 80 79 68 10 25 26 29 28 27 29 37 39
143 137 142 141 145 151 156 164 171 176 181 183 181 181 189 184 183 164 147 139 128 108 103 95 86 96 101 106 110 111 102 92 97 256 353 18 22 27 28 26 30 36 38
161 148 148 149 151 154 160 167 173 179 187 193 194 195 201 207 203 201 177 160 148 135 123 111 103 112 116 113 110 122 118 105 103 308 335 13 20 26 26 26 30 34 34
149 150 155 159 161 162 166 172 179 187 193 200 206 208 210 214 222 214 212 186 169 161 152 138 131 130 131 124 117 122 129 121 105 110 326 5 17 25 26 27 31 36 32
149 162 163 169 172 174 177 180 186 193 201 207 211 213 213 212 220 229 225 215 195 185 179 166 160 153 148 138 130 125 135 113 152 229 298 355 14 24 31 33 40 39 34
175 191 182 172 173 179 188 189 192 198 204 210 215 216 214 214 216 224 231 222 207 205 200 191 182 177 167 156 140 133 136 125 170 273 314 0 18 26 35 44 45 44 36
183 154 177 192 174 141 210 189 205 207 211 212 216 218 214 211 215 244 228 238 228 217 213 206 201 195 192 180 167 141 131 153 179 262 295 358 17 29 37 50 48 47 39
198 220 194 181 187 142 199 213 248 228 218 216 216 217 211 188 209 206 237 248 247 235 221 217 212 209 199 194 230 242 145 171 232 261 275 341 11 31 41 48 44 44 39
252 151 184 188 204 208 179 215 173 240 241 230 226 218 208 184 190 213 230 249 274 246 229 212 248 213 198 206 247 256 234 200 223 245 274 296 355 25 41 42 35 36 34
307 23 164 217 229 171 208 194 232 223 224 214 232 236 209 195 184 204 210 246 247 271 231 217 240 244 217 245 230 243 239 224 223 243 265 269 292 5 41 33 21 20 25
267 257 256 231 194 197 231 215 250 241 251 244 258 228 206 197 206 200 197 207 223 221 239 210 224 224 230 218 250 246 245 245 218 239 264 270 256 265 305 25 19 2 5
247 250 235 233 226 229 244 226 241 215 263 266 252 259 293 203 214 208 198 202 216 216 218 219 218 230 233 235 225 252 252 234 215 241 268 279 263 262 254 251 331 339 350
224 232 224 221 227 222 241 239 228 265 262 268 280 288 227 191 219 220 202 202 203 213 237 225 231 226 249 238 238 247 244 230 238 186 250 278 267 276 259 271 273 325 330
217 217 205 202 209 217 241 214 218 244 248 264 258 250 242 257 239 228 212 209 211 212 213 237 224 236 238 246 242 245 244 226 223 257 250 253 263 267 279 278 264 308 311
220 210 210 207 204 199 231 195 228 223 246 237 276 257 241 232 182 233 197 207 223 218 217 236 246 245 238 240 242 257 263 236 251 255 240 231 234 249 261 271 264 277 283
220 213 214 203 202 203 209 195 206 216 238 232 251 214 154 161 196 207 200 219 235 236 238 230 241 238 230 247 257 257 256 254 247 255 231 231 214 228 244 252 255 260 262
219 208 210 206 204 201 196 192 206 225 221 214 226 247 150 103 176 227 208 210 259 254 249 249 245 245 248 245 264 272 262 256 258 243 232 233 221 222 233 242 255 250 254
215 209 213 213 206 205 202 196 210 203 211 188 186 212 258 209 204 206 235 216 240 248 269 283 276 261 267 256 256 261 246 272 271 246 241 236 228 218 231 240 260 254 250
220 225 223 217 205 210 196 203 208 211 210 223 238 240 224 212 204 221 243 240 246 250 259 259 275 286 290 276 264 264 255 247 278 285 241 232 224 224 234 233 243 249 244
218 215 217 209 201 212 209 194 205 212 212 223 234 200 170 184 207 216 225 244 253 257 252 251 259 268 279 286 275 262 263 258 250 264 275 263 236 231 236 234 235 229 236
228 207 208 210 204 207 218 205 198 215 212 219 224 214 209 224 253 248 254 244 239 256 260 254 260 260 261 270 271 271 264 268 264 257 256 262 258 260 248 238 232 225 231
Wind_Speed_850mb
21 37 34 32 35 36 32 28 29 32 31 31 29 27 25 25 25 24 26 25 23 22 21 21 22 24 24 23 21 23 31 36 46 43 41 37 32 28 21 14 17 27 27
37 36 35 33 33 34 31 27 25 27 29 28 27 24 22 23 23 22 23 22 21 21 21 22 22 22 22 21 23 29 35 42 44 40 44 40 40 32 28 21 23 34 32
43 42 37 35 35 32 28 25 24 26 27 26 24 22 19 19 21 20 19 19 19 19 20 20 20 20 20 21 26 29 38 41 40 34 26 39 41 36 34 33 31 32 33
40 40 38 36 35 35 31 27 24 24 25 24 21 19 16 15 16 17 16 16 16 16 18 19 18 18 18 21 23 29 37 39 37 42 27 25 35 35 35 36 30 24 25
40 39 37 36 35 34 31 30 29 26 25 23 19 17 14 13 12 13 14 13 13 14 15 16 15 15 16 19 21 29 35 33 32 16 12 22 30 31 27 22 25 25 26
38 36 36 34 34 33 32 30 32 29 27 24 19 15 13 11 9 11 12 12 10 12 13 13 13 13 15 17 21 30 33 32 27 11 22 31 31 31 29 28 27 25 22
37 33 34 33 33 32 31 30 30 29 27 25 21 17 14 12 9 9 10 11 10 9 11 11 11 13 15 18 21 27 31 30 27 5 21 33 36 31 30 29 28 25 24
28 28 31 32 31 31 31 31 30 28 26 24 22 19 16 14 12 9 8 9 10 8 9 9 9 12 15 17 19 22 20 25 21 11 21 29 34 31 30 29 28 27 26
20 30 29 29 30 30 29 29 29 29 28 26 24 21 20 18 16 13 10 9 9 9 8 8 8 11 14 16 18 22 24 22 18 4 14 28 30 29 29 29 28 28 27
29 15 30 31 29 29 30 31 30 29 29 29 28 27 26 24 22 18 14 11 10 10 9 10 9 11 13 14 14 18 24 13 7 12 14 20 26 26 27 27 28 27 31
41 30 21 22 29 28 28 29 30 31 32 32 33 33 32 30 26 24 20 16 13 12 12 12 11 12 13 11 11 13 19 14 11 16 14 18 21 24 25 26 27 29 33
38 37 26 30 26 25 18 13 25 30 31 34 36 37 36 30 20 17 22 18 16 16 17 16 15 15 15 12 11 12 19 13 12 22 15 15 18 21 21 24 26 28 33
40 21 60 65 36 23 44 30 15 26 33 38 41 42 40 30 33 26 25 28 25 23 22 20 20 19 14 10 8 7 9 9 13 22 19 11 13 16 17 19 22 24 31
7 16 24 37 33 24 20 26 12 23 34 29 33 39 33 44 38 31 26 20 12 24 22 16 13 13 20 22 26 11 10 20 23 24 25 14 8 11 13 15 18 22 27
10 13 13 17 15 30 45 20 20 37 40 35 23 32 41 43 39 42 29 27 22 7 6 26 13 24 8 26 32 26 19 22 32 31 31 19 6 4 7 10 14 20 25
21 16 8 11 23 22 22 36 16 29 23 34 34 50 41 33 34 34 36 31 22 20 18 16 25 24 26 26 32 37 35 25 36 33 37 18 11 5 1 3 9 14 21
27 33 26 15 24 22 25 29 36 21 19 39 35 57 53 34 35 41 29 29 35 22 30 20 23 26 29 27 34 36 33 26 40 35 34 25 17 13 7 2 4 10 15
34 27 35 29 24 28 25 25 27 29 25 30 37 23 26 33 42 42 44 40 33 28 28 37 30 29 29 26 27 28 37 38 18 29 23 37 22 17 13 8 8 11 16
31 32 41 39 23 27 18 17 23 27 29 31 26 24 26 17 25 33 36 31 40 39 32 26 34 32 30 34 27 30 36 36 34 17 27 45 33 31 20 17 15 13 17
39 42 35 44 35 26 22 26 19 19 18 26 32 42 44 35 27 26 27 35 38 41 38 29 36 38 38 39 35 39 40 52 47 29 44 44 40 39 23 31 20 20 19
40 51 56 47 46 38 31 26 15 19 20 25 31 20 28 16 18 21 19 25 24 35 43 44 45 38 41 38 37 38 29 31 28 32 40 40 50 43 35 37 33 28 20
44 52 52 55 52 51 42 32 24 26 28 14 21 9 15 6 13 11 16 21 22 18 26 30 48 42 39 38 37 33 43 37 39 36 46 43 42 43 45 45 38 30 22
47 54 53 53 57 58 49 41 38 21 20 18 10 15 18 14 15 15 16 15 21 22 20 26 24 35 44 46 47 49 26 21 38 38 54 53 47 52 48 46 36 29 31
52 58 55 56 61 64 54 49 47 42 29 26 27 31 32 20 19 25 24 26 29 26 24 24 27 33 32 37 47 57 58 53 33 21 39 48 50 52 48 46 41 33 38
44 53 56 57 60 64 63 52 49 44 43 32 27 26 30 31 28 26 23 24 30 31 33 31 36 34 39 34 34 42 45 54 65 53 34 25 42 46 51 53 44 39 45
40 57 53 51 63 59 57 64 49 49 47 37 39 28 30 26 20 24 22 30 33 33 30 33 41 43 44 42 41 40 42 49 55 61 61 53 41 49 54 57 47 44 49
Wind_Direction_850mb
140 148 147 143 141 141 139 134 130 131 131 126 121 114 109 107 103 98 95 93 89 85 82 82 86 91 95 94 96 92 70 58 54 45 40 41 44 52 52 74 0 31 39
144 146 146 143 144 146 144 143 137 137 136 130 125 120 111 109 106 102 100 97 90 84 83 84 84 88 90 88 95 88 69 66 55 46 25 17 31 40 45 42 37 40 41
148 147 146 143 148 146 149 154 150 147 145 139 132 127 118 109 108 107 105 100 91 86 89 87 84 87 90 87 100 85 75 71 57 45 41 357 17 29 35 44 41 39 31
146 146 145 143 145 147 153 160 162 157 156 149 141 136 128 117 111 112 109 104 95 88 94 90 84 86 93 92 96 83 82 77 65 55 66 337 9 26 28 30 38 41 26
146 145 140 139 144 148 156 165 170 168 166 161 154 149 145 133 123 121 116 111 102 93 92 89 84 83 90 94 94 87 91 82 80 79 33 13 21 32 35 29 28 35 43
136 137 138 138 143 148 157 167 172 173 174 173 168 167 164 159 148 138 130 123 112 97 96 87 80 85 93 102 104 101 98 80 79 68 10 25 26 29 28 27 29 37 39
143 137 142 141 145 151 156 164 171 176 181 183 181 181 189 184 183 164 147 139 128 108 103 95 86 96 101 106 110 111 102 92 97 256 353 18 22 27 28 26 30 36 38
161 148 148 149 151 154 160 167 173 179 187 193 194 195 201 207 203 201 177 160 148 135 123 111 103 112 116 113 110 122 118 105 103 308 335 13 20 26 26 26 30 34 34
149 150 155 159 161 162 166 172 179 187 193 200 206 208 210 214 222 214 212 186 169 161 152 138 131 130 131 124 117 122 129 121 105 110 326 5 17 25 26 27 31 36 32
149 162 163 169 172 174 177 180 186 193 201 207 211 213 213 212 220 229 225 215 195 185 179 166 160 153 148 138 130 125 135 113 152 229 298 355 14 24 31 33 40 39 34
175 191 182 172 173 179 188 189 192 198 204 210 215 216 214 214 216 224 231 222 207 205 200 191 182 177 167 156 140 133 136 125 170 273 314 0 18 26 35 44 45 44 36
183 154 177 192 174 141 210 189 205 207 211 212 216 218 214 211 215 244 228 238 228 217 213 206 201 195 192 180 167 141 131 153 179 262 295 358 17 29 37 50 48 47 39
198 220 194 181 187 142 199 213 248 228 218 216 216 217 211 188 209 206 237 248 247 235 221 217 212 209 199 194 230 242 145 171 232 261 275 341 11 31 41 48 44 44 39
252 151 184 188 204 208 179 215 173 240 241 230 226 218 208 184 190 213 230 249 274 246 229 212 248 213 198 206 247 256 234 200 223 245 274 296 355 25 41 42 35 36 34
307 23 164 217 229 171 208 194 232 223 224 214 232 236 209 195 184 204 210 246 247 271 231 217 240 244 217 245 230 243 239 224 223 243 265 269 292 5 41 33 21 20 25
267 257 256 231 194 197 231 215 250 241 251 244 258 228 206 197 206 200 197 207 223 221 239 210 224 224 230 218 250 246 245 245 218 239 264 270 256 265 305 25 19 2 5
247 250 235 233 226 229 244 226 241 215 263 266 252 259 293 203 214 208 198 202 216 216 218 219 218 230 233 235 225 252 252 234 215 241 268 279 263 262 254 251 331 339 350
224 232 224 221 227 222 241 239 228 265 262 268 280 288 227 191 219 220 202 202 203 213 237 225 231 226 249 238 238 247 244 230 238 186 250 278 267 276 259 271 273 325 330
217 217 205 202 209 217 241 214 218 244 248 264 258 250 242 257 239 228 212 209 211 212 213 237 224 236 238 246 242 245 244 226 223 257 250 253 263 267 279 278 264 308 311
220 210 210 207 204 199 231 195 228 223 246 237 276 257 241 232 182 233 197 207 223 218 217 236 246 245 238 240 242 257 263 236 251 255 240 231 234 249 261 271 264 277 283
220 213 214 203 202 203 209 195 206 216 238 232 251 214 154 161 196 207 200 219 235 236 238 230 241 238 230 247 257 257 256 254 247 255 231 231 214 228 244 252 255 260 262
219 208 210 206 204 201 196 192 206 225 221 214 226 247 150 103 176 227 208 210 259 254 249 249 245 245 248 245 264 272 262 256 258 243 232 233 221 222 233 242 255 250 254
215 209 213 213 206 205 202 196 210 203 211 188 186 212 258 209 204 206 235 216 240 248 269 283 276 261 267 256 256 261 246 272 271 246 241 236 228 218 231 240 260 254 250
220 225 223 217 205 210 196 203 208 211 210 223 238 240 224 212 204 221 243 240 246 250 259 259 275 286 290 276 264 264 255 247 278 285 241 232 224 224 234 233 243 249 244
218 215 217 209 201 212 209 194 205 212 212 223 234 200 170 184 207 216 225 244 253 257 252 251 259 268 279 286 275 262 263 258 250 264 275 263 236 231 236 234 235 229 236
228 207 208 210 204 207 218 205 198 215 212 219 224 214 209 224 253 248 254 244 239 256 260 254 260 260 261 270 271 271 264 268 264 257 256 262 258 260 248 238 232 225 231